Location: Palmerston North
(40.3500°S, 175.6170°E)
Time: 13:48:44
(UTC+13:00)

Cosmos 841 Rocket - Pass Details

Date: 24 January 2019
Orbit: 746 x 773 km, 74.0° (Epoch: 12 October)

Event Time Altitude Azimuth Distance (km) Brightness Sun altitude
Rises 22:50:29 0° 206° (SSW) 3,287 8.2 -19.9°
Reaches altitude 10° 22:52:58 10° 211° (SSW) 2,351 7.2 -20.2°
Maximum altitude 22:58:03 46° 283° (WNW) 1,041 4.3 -20.8°
Enters shadow 23:00:42 26° 341° (NNW) 1,510 4.7 -21.1°
